Погода в Новой Амзе

Россия / Республика Татарстан     54°49′34″N   50°26′46″E
темп.,
°C
ветер,
м/с
пор.,
м/с
влажн.,
%
обл.,
%
осадки,
мм/ч
давл.,
гПа
погр.,
м
8 марта, пн
пн800:00−8ю71394100 1.2 1001877
03:00−6ююз71494100 2.6 997948
06:00−4ююз71494100 1.4 994939
09:00−4зюз8148398 1.8 9961094
12:00−3зюз7108380 0.0 9991036
15:00−4зюз6108190 0.1 10011137
18:00−7ююз238991 0.0 100121
21:00−4ю4129590 2.1 1000784
9 марта, вт
вт900:00−6з4695100 1.1 1002352
03:00−9зсз4994100 2.9 1006296
06:00−15з339769 0.0 100846
09:00−11зюз359365 0.0 1010238
12:00−7з238464 0.0 1010501
15:00−7з129083 0.1 1010309
18:00−12ссз3397100 0.3 100979
21:00−17ссз239680 0.3 101026
10 марта, ср
ср1000:00−17ссз349862 0.0 100982
03:00−16ссз499781 0.1 1009229
06:00−16ссз61194100 0.1 1010376
09:00−17ссз61192100 0.2 1012440
12:00−17ссз6992100 0.0 1014510
15:00−18ссз61091100 0.1 1015468
18:00−21ссз5129099 0.0 1018442
21:00−23ссз5129272 0.0 1019317
11 марта, чт
чт1100:00−24ссз5119725 0.0 1020230
03:00−25сз4119748 0.0 1022199
06:00−26сз5109866 0.0 1023195
09:00−21зсз5109568 0.0 1023276
12:00−16зсз6109086 0.0 1023457
15:00−14сз599093 0.1 1023607
18:00−15зсз41095100 0.1 1024270
21:00−14зсз41195100 0.1 1025244
12 марта, пт
пт1200:00−15сз499678 0.0 1026196
03:00−17сз499669 0.0 1028151
06:00−18зсз479632 0.0 1030109
09:00−14зсз479015 0.0 1031264
12:00−11зсз47890 0.0 1031309
15:00−10з47870 0.0 1031354
18:00−14з36930 0.0 1032104
21:00−17з47902 0.0 1033121